Weather in Sosnovka

Russia / Kemerovo Oblast     54°17′30″N   85°43′33″E
temp.,
°C
wind,
m/s
gust,
m/s
humid.,
%
clouds,
%
prec.,
mm/h
press.,
hPa
HPBL,
m
15 april, thu
thu1501:00+1wsw3898100 0.1 1026376
04:00+1sw2599100 0.0 1026162
07:00+1sw2399100 0.0 1027109
10:00+2sw2397100 0.0 1027203
13:00+4sw2392100 0.0 1027389
16:00+4sw3595100 0.0 1026397
19:00+3ssw3798100 0.0 1025319
22:00+2sw4998100 0.0 1025333
16 april, fri
fri1601:00+2ssw41098100 0.0 1023291
04:00+2sw51298100 0.0 1022339
07:00+3ssw5139799 0.1 1021399
10:00+4sw61496100 0.0 1019413
13:00+7sw61493100 0.0 1018503
16:00+10sw7138468 0.0 1016760
19:00+11sw61382100 0.0 1014801
22:00+7sw41191100 0.1 1014277
17 april, sat
sat1701:00+2n4894100 0.3 1017498
04:000nne5993100 0.1 1019638
07:00−1nne5993100 0.3 1020661
10:00−1nne577489 0.1 1020706
13:00+2nne445623 0.1 1018888
16:00+4nne324925 0.0 10161062
19:00+3nnw225327 0.0 1015922
22:000wnw1171100 0.0 101611
18 april, sun
sun1801:00−1w377760 0.0 1016276
04:00−1wsw3872100 0.0 1018286
07:00−1wsw2674100 0.0 1019414
10:00+2wsw2449100 0.0 1019891
13:00+4sw3446100 0.0 10181281
16:00+4ssw3450100 0.0 10161447
19:00+4s2563100 0.0 1013241
22:00+1sse2896100 0.1 1011409
19 april, mon
mon1901:00+2sse41197100 0.2 1005478
04:00+4ssw61686100 0.0 1001687
07:00+3sw61297100 1.3 1000962
10:00+1wsw71477100 2.6 10021534
13:00+1wsw9156154 2.7 10051519
16:00+1wsw9155742 0.1 10091645
19:00−2w7146483 0.1 10121584
22:00−4w6136941 0.0 10151248